Regional Weather Roundup
Issued by NWS

Home | Current Version | Previous Version | Graphics & Text | Print | Product List | Glossary Off
Versions: 1 2 3 4 5 6 7 8 9 10 11 12 13 14 15 16 17 18 19 20 21 22 23 24 25 26 27 28 29 30 31 32 33 34 35 36 37 38 39 40 41 42 43 44 45 46 47 48 49 50

000
ASUS43 KTOP 230259
RWRKS

WEATHER ROUNDUP FOR KANSAS
NATIONAL WEATHER SERVICE GOODLAND KS
900 PM CST WED NOV 22 2017

NOTE:  "FAIR" INDICATES FEW OR NO CLOUDS BELOW 12,000 FEET WITH NO
SIGNIFICANT WEATHER AND/OR OBSTRUCTIONS TO VISIBILITY.

KSZ001>006-013>018-027>032-041>047-230400-
NORTHWEST KANSAS

CITY           SKY/WX    TMP DP  RH WIND       PRES   REMARKS
GOODLAND       CLOUDY    47  35  63 W9        30.15S
HAYS           CLEAR     44  28  53 S5        30.11F
HILL CITY      CLEAR     50  34  54 W5        30.10S
RUSSELL        CLEAR     44  23  43 S14       30.10S
$$

KSZ061>065-074>080-084>089-230400-
SOUTHWEST KANSAS

CITY           SKY/WX    TMP DP  RH WIND       PRES   REMARKS
DODGE CITY     CLOUDY    44  28  53 SW8       30.14F
GARDEN CITY    CLOUDY    43  31  62 W8        30.14S
LIBERAL        CLOUDY    41  30  65 W8        30.17S
$$

KSZ066>073-081>083-090>101-230400-
SOUTHEAST KANSAS

CITY           SKY/WX    TMP DP  RH WIND       PRES   REMARKS
CHANUTE        CLOUDY    32  21  64 S7        30.24S
COFFEYVILLE    CLEAR     31  23  72 S5        30.25S
HUTCHINSON     CLEAR     37  21  52 S9        30.17S
MEDICINE LODGE   N/A     37  20  50 SE5       30.18R
NEWTON         CLEAR     35  19  52 S10       30.18S WCI  27
PARSONS        CLOUDY    29  23  78 CALM      30.25S
WICHITA INTL   CLEAR     35  21  56 S9        30.18F
WICHITA JABRA  CLEAR     38  20  48 S8        30.19S
WICHITA MCCONL CLEAR     36  19  48 SW9       30.18F
WINFIELD       CLOUDY    34  22  61 SE6       30.22F
$$

KSZ007>012-019>026-033>040-048>060-102>105-230400-
NORTHEAST KANSAS

CITY           SKY/WX    TMP DP  RH WIND       PRES   REMARKS
CONCORDIA      CLEAR     42  21  43 S15       30.10S
EMPORIA        CLEAR     33  18  53 S8        30.19F
LAWRENCE       PTCLDY    34  21  59 S3        30.20F
MANHATTAN      CLEAR     36  21  54 SW6       30.16F
OLATHE IND     PTCLDY    36  20  52 S8        30.20F
OLATHE EXE     PTCLDY    33  20  58 SW5       30.20F
SALINA         CLEAR     42  21  43 S13       30.15F
TOPEKA BILLARD PTCLDY    38  20  48 S6        30.18F
TOPEKA FORBES  CLEAR     38  20  48 S8        30.18F
$$




USA.gov is the U.S. government's official web portal to all federal, state and local government web resources and services.